Beckley, WV

12:36 AM EDT on October 20, 2019 (GMT -0400)
Raleigh County Memorial

Weather History for KBKW - July, 2019

Change the Weather History Date:

Thursday, July 18, 2019

  Actual Average Record
Temperature  
Mean Temperature 77 °F 71 °F  
Max Temperature 83 °F 80 °F 92 °F (1902)
Min Temperature 70 °F 62 °F 47 °F (1976)
Degree Days  
Heating Degree Days 0 0  
Month to date heating degree days 0 0  
Since 1 June heating degree days 33 39  
Since 1 July heating degree days 0 0  
Cooling Degree Days 12 6  
Month to date cooling degree days 187 108  
Year to date cooling degree days 413 260  
Since 1 June cooling degree days 293 219  
Growing Degree Days 26 (Base 50)    
Moisture  
Dew Point 69 °F    
Average Humidity 81    
Maximum Humidity 97    
Minimum Humidity 65    
Precipitation  
Precipitation 0.17 in 0.16 in 1.85 in (1936)
Month to date precipitation 2.97 2.87  
Year to date precipitation 25.86 24.03  
Sea Level Pressure  
Sea Level Pressure 30.01 in    
Wind  
Wind Speed 7 mph (WSW)    
Max Wind Speed 15 mph    
Max Gust Speed 19 mph    
Visibility 10 miles    
Events Rain , Thunderstorm    
T = Trace of Precipitation, MM = Missing Value Source: NWS Daily Summary

Daily Weather History Graph

Daily Weather History Graph

Search for Another Location

Airport or City:

Astronomy

Jul. 18, 2019 Rise Set
Actual Time 6:16 AM EDT 8:44 PM EDT
Civil Twilight 5:46 AM EDT 9:14 PM EDT
Nautical Twilight 5:08 AM EDT 9:52 PM EDT
Astronomical Twilight 4:27 AM EDT 10:33 PM EDT
Moon 10:10 PM EDT (7/18) 7:43 AM EDT (7/18)
Length of Visible Light 15h 28m
Length of Day
14h 27m
Full, 97% of the Moon is Illuminated
Jul 18
Full
Jul 24
Last Quarter
Jul 31
New
Aug 7
First Quarter
Aug 15
Full

Hourly Weather History & Observations

Time (EDT) Temp. Heat Index Dew Point Humidity Pressure Visibility Wind Dir Wind Speed Gust Speed Precip Events Conditions
12:04 AM 71.1 °F - 69.1 °F 93% 30.08 in 10.0 mi WSW 8.1 mph - N/A   Mostly Cloudy
12:20 AM 71.1 °F - 69.1 °F 93% 30.07 in 10.0 mi WSW 8.1 mph - N/A   Overcast
12:51 AM 70.0 °F - 68.0 °F 93% 29.97 in 10.0 mi SW 4.6 mph - N/A   Mostly Cloudy
1:01 AM 70.0 °F - 68.0 °F 93% 30.07 in 10.0 mi WSW 5.8 mph - N/A   Mostly Cloudy
1:51 AM 71.1 °F - 68.0 °F 90% 29.96 in 10.0 mi SW 8.1 mph - N/A   Overcast
2:51 AM 71.1 °F - 68.0 °F 90% 29.96 in 10.0 mi SW 8.1 mph - N/A   Overcast
3:51 AM 71.1 °F - 68.0 °F 90% 29.94 in 10.0 mi SW 5.8 mph - N/A   Overcast
4:03 AM 71.1 °F - 68.0 °F 90% 30.05 in 10.0 mi SW 8.1 mph - N/A   Overcast
4:23 AM 71.1 °F - 68.0 °F 90% 30.05 in 10.0 mi WSW 6.9 mph - N/A   Overcast
4:51 AM 71.1 °F - 68.0 °F 90% 29.94 in 9.0 mi SW 4.6 mph - N/A   Overcast
5:17 AM 71.1 °F - 68.0 °F 90% 30.05 in 10.0 mi WSW 6.9 mph - N/A   Overcast
5:51 AM 70.0 °F - 68.0 °F 93% 29.95 in 10.0 mi WSW 5.8 mph - N/A   Overcast
6:51 AM 70.0 °F - 68.0 °F 93% 29.96 in 8.0 mi WSW 4.6 mph - N/A   Overcast
7:16 AM 71.1 °F - 68.0 °F 90% 30.07 in 10.0 mi WSW 5.8 mph - N/A   Mostly Cloudy
7:43 AM 71.1 °F - 68.0 °F 90% 30.08 in 10.0 mi West 9.2 mph - N/A   Overcast
7:51 AM 71.1 °F - 68.0 °F 90% 29.98 in 10.0 mi WSW 5.8 mph - N/A   Overcast
8:51 AM 72.0 °F - 68.0 °F 87% 29.99 in 10.0 mi WSW 4.6 mph - N/A   Overcast
9:51 AM 72.0 °F - 68.0 °F 87% 30.00 in 10.0 mi SW 6.9 mph - N/A   Overcast
10:23 AM 73.0 °F - 69.1 °F 87% 30.10 in 10.0 mi SW 8.1 mph - N/A   Overcast
10:49 AM 73.4 °F - 69.8 °F 88% 30.10 in 9.0 mi SW 5.8 mph - 0.00 in Rain Light Rain
10:51 AM 73.0 °F - 69.1 °F 87% 30.00 in 10.0 mi WSW 6.9 mph - 0.00 in Rain Light Rain
11:51 AM 78.1 °F - 69.1 °F 74% 29.99 in 10.0 mi WSW 10.4 mph - 0.00 in   Mostly Cloudy
12:00 PM 79.0 °F - 69.1 °F 72% 30.09 in 10.0 mi West 10.4 mph - N/A   Mostly Cloudy
12:51 PM 78.1 °F - 69.1 °F 74% 29.98 in 10.0 mi West 6.9 mph - N/A   Mostly Cloudy
1:07 PM 81.0 °F 84.4 °F 70.0 °F 69% 30.09 in 10.0 mi West 9.2 mph - N/A   Scattered Clouds
1:36 PM 80.1 °F 82.9 °F 69.1 °F 69% 30.08 in 10.0 mi West 6.9 mph - N/A   Mostly Cloudy
1:51 PM 81.0 °F 83.8 °F 68.0 °F 65% 29.96 in 10.0 mi West 9.2 mph - N/A   Mostly Cloudy
1:59 PM 81.0 °F 84.1 °F 69.1 °F 67% 30.08 in 10.0 mi WNW 10.4 mph - N/A   Scattered Clouds
2:51 PM 82.0 °F 85.5 °F 69.1 °F 65% 29.95 in 10.0 mi NW 9.2 mph - N/A   Mostly Cloudy
3:12 PM 80.6 °F 83.2 °F 68.0 °F 65% 30.07 in 10.0 mi NW 10.4 mph - N/A   Mostly Cloudy
3:31 PM 78.1 °F - 70.0 °F 76% 30.07 in 3.0 mi NNW 8.1 mph - 0.04 in Rain Rain
3:51 PM 78.1 °F - 71.1 °F 79% 29.96 in 10.0 mi NE 6.9 mph - 0.05 in   Mostly Cloudy
4:33 PM 75.9 °F - 70.0 °F 82% 30.06 in 1.8 mi NE 5.8 mph - 0.02 in Rain Heavy Rain
4:41 PM 77.0 °F - 70.0 °F 79% 30.05 in 3.0 mi Variable 6.9 mph - 0.12 in Rain Light Rain
4:51 PM 78.1 °F - 70.0 °F 76% 29.94 in 10.0 mi North 13.8 mph - 0.12 in   Scattered Clouds
5:19 PM 79.0 °F - 69.1 °F 72% 30.05 in 10.0 mi NNW 5.8 mph - N/A Thunderstorm Thunderstorm
5:32 PM 80.1 °F 82.9 °F 69.1 °F 69% 30.05 in 10.0 mi WNW 6.9 mph - N/A   Scattered Clouds
5:51 PM 79.0 °F - 68.0 °F 69% 29.94 in 10.0 mi West 8.1 mph - N/A   Mostly Cloudy
6:27 PM 80.1 °F 82.7 °F 68.0 °F 67% 30.06 in 10.0 mi West 9.2 mph - N/A   Scattered Clouds
6:51 PM 79.0 °F - 66.9 °F 66% 29.95 in 10.0 mi West 8.1 mph - N/A   Clear
7:51 PM 78.1 °F - 66.9 °F 68% 29.96 in 10.0 mi West 5.8 mph - N/A   Clear
8:51 PM 73.9 °F - 68.0 °F 82% 29.96 in 10.0 mi WSW 4.6 mph - N/A   Clear
9:51 PM 73.0 °F - 69.1 °F 87% 29.94 in 10.0 mi South 6.9 mph - N/A   Clear
10:51 PM 71.1 °F - 68.0 °F 90% 29.96 in 10.0 mi Calm Calm - N/A   Clear
11:38 PM 72.0 °F - 69.1 °F 91% 30.09 in 10.0 mi SW 4.6 mph - N/A   Mostly Cloudy
11:51 PM 71.1 °F - 68.0 °F 90% 29.99 in 10.0 mi SW 4.6 mph - N/A   Scattered Clouds